MET'MAP v2.0
soon released !

Expected late october,
this new version will be
more efficient, smarter,
and hosted on a brand new
server x3 powerfull...
...and still free !


Not compatible ?
Try the mobile version !

LOG IN : | Subscribe | Disclaimer | Who is Orbifly ? |
ICAO code :

TAF - LFPV Villacoublay Vélizy - 27 Feb 2020 03:32 UTC
Data Sources :     NOAA   


- Airport Elevation : 584 ft
- No reported NOTAMs.


LFPV - Villacoublay Vélizy

Latest METAR recorded : 2020/02/27 02:00 LFPV 270200Z AUTO 20004KT 160V240 9999 NCD 03/01 Q1008 NOSIG
NO TAF


MET'MAP, your aeronautical weather chart ! - Copyright ORBIFLY December 2007

Programming & Development : Alexandra Zaïnal
Co-Developer : Marc-Olivier Méhu
Technical & hardware support : Manuel Goepfert
Concept & Financing : Baudouin d'Aumeries